When you browse on this site, cookies collect data to enhance your experience and personalize the content and advertising you see.
Visit our Privacy Policy to learn more. By continuing to use the site, you agree to this use of cookies and data.
  • In Switzerland
  • List of Countries
  • For 7 days
  • Water Temperature
  • Satellite Maps
  • Weather Map
  • Weather Widgets
  • user-avatar
    Login

    Hourly Weather Ghazni

    Today, 26 April, Friday

    Time Temperature Precipitation Wind Pressure Humidity
    00:00 +12°C° 0 mm 4 mps 586 mmHg 37%
    01:00 +11°C° 0 mm 3 mps 586 mmHg 39%
    02:00 +10°C° 0 mm 2 mps 586 mmHg 41%
    03:00 +10°C° 0 mm 2 mps 585 mmHg 42%
    04:00 +9°C° 0 mm 2 mps 585 mmHg 44%
    05:00 +9°C° 0 mm 2 mps 585 mmHg 46%
    06:00 +9°C° 0 mm 2 mps 586 mmHg 42%
    07:00 +10°C° 0 mm 2 mps 586 mmHg 39%
    08:00 +12°C° 0 mm 2 mps 587 mmHg 36%
    09:00 +13°C° 0 mm 3 mps 587 mmHg 31%
    10:00 +14°C° 0 mm 3 mps 588 mmHg 26%
    11:00 +15°C° 0 mm 4 mps 589 mmHg 22%
    12:00 +16°C° 0 mm 5 mps 589 mmHg 20%
    13:00 +17°C° 0 mm 5 mps 589 mmHg 18%
    14:00 +19°C° 0 mm 6 mps 589 mmHg 17%
    15:00 +18°C° 0 mm 7 mps 589 mmHg 17%
    16:00 +18°C° 0 mm 8 mps 589 mmHg 17%
    17:00 +18°C° 0 mm 8 mps 588 mmHg 17%
    18:00 +17°C° 0 mm 8 mps 588 mmHg 19%
    19:00 +16°C° 0 mm 7 mps 588 mmHg 21%
    20:00 +15°C° 0 mm 6 mps 588 mmHg 23%
    21:00 +14°C° 0 mm 5 mps 588 mmHg 25%
    22:00 +14°C° 0 mm 4 mps 588 mmHg 27%
    23:00 +13°C° 0 mm 4 mps 588 mmHg 29%

    Tomorrow, 27 April, Saturday

    Time Temperature Precipitation Wind Pressure Humidity
    00:00 +12°C° 0 mm 3 mps 588 mmHg 32%
    01:00 +13°C° 0 mm 2 mps 587 mmHg 34%
    02:00 +12°C° 0 mm 2 mps 587 mmHg 36%
    03:00 +11°C° 0 mm 1 mps 586 mmHg 38%
    04:00 +11°C° 0 mm 1 mps 586 mmHg 39%
    05:00 +10°C° 0 mm 1 mps 586 mmHg 41%
    06:00 +11°C° 0 mm 1 mps 587 mmHg 37%
    07:00 +12°C° 0 mm 1 mps 587 mmHg 34%
    08:00 +13°C° 0 mm 1 mps 588 mmHg 30%
    09:00 +14°C° 0 mm 2 mps 588 mmHg 27%
    10:00 +16°C° 0 mm 2 mps 589 mmHg 23%
    11:00 +17°C° 0 mm 3 mps 589 mmHg 19%
    12:00 +18°C° 0 mm 4 mps 590 mmHg 18%
    13:00 +19°C° 0 mm 4 mps 590 mmHg 16%
    14:00 +21°C° 0 mm 5 mps 590 mmHg 14%
    15:00 +21°C° 0 mm 6 mps 589 mmHg 15%
    16:00 +21°C° 0 mm 7 mps 589 mmHg 15%
    17:00 +21°C° 0 mm 8 mps 589 mmHg 15%
    18:00 +20°C° 0 mm 7 mps 588 mmHg 18%
    19:00 +17°C° 0 mm 7 mps 588 mmHg 20%
    20:00 +16°C° 0 mm 7 mps 588 mmHg 23%
    21:00 +15°C° 0 mm 6 mps 588 mmHg 25%
    22:00 +15°C° 0 mm 5 mps 588 mmHg 27%
    23:00 +14°C° 0 mm 4 mps 588 mmHg 30%

    Day after tomorrow, 28 April, Sunday

    Time Temperature Precipitation Wind Pressure Humidity
    00:00 +13°C° 0 mm 4 mps 588 mmHg 31%
    01:00 +13°C° 0 mm 3 mps 588 mmHg 33%
    02:00 +13°C° 0 mm 2 mps 587 mmHg 35%
    03:00 +12°C° 0 mm 2 mps 587 mmHg 37%
    04:00 +12°C° 0 mm 2 mps 586 mmHg 38%
    05:00 +11°C° 0 mm 1 mps 586 mmHg 40%
    06:00 +12°C° 0 mm 1 mps 587 mmHg 37%
    07:00 +13°C° 0 mm 1 mps 587 mmHg 34%
    08:00 +14°C° 0 mm 1 mps 588 mmHg 30%
    09:00 +15°C° 0 mm 1 mps 588 mmHg 27%
    10:00 +16°C° 0 mm 1 mps 589 mmHg 24%
    11:00 +17°C° 0 mm 2 mps 589 mmHg 21%
    12:00 +18°C° 0 mm 2 mps 589 mmHg 19%
    13:00 +20°C° 0 mm 3 mps 589 mmHg 17%
    14:00 +21°C° 0 mm 4 mps 589 mmHg 14%
    15:00 +21°C° 0 mm 4 mps 589 mmHg 14%
    16:00 +21°C° 0 mm 5 mps 589 mmHg 13%
    17:00 +21°C° 0 mm 6 mps 588 mmHg 13%
    18:00 +20°C° 0 mm 5 mps 588 mmHg 15%
    19:00 +19°C° 0 mm 5 mps 588 mmHg 18%
    20:00 +17°C° 0 mm 5 mps 588 mmHg 21%
    21:00 +17°C° 0 mm 4 mps 588 mmHg 23%
    22:00 +15°C° 0 mm 4 mps 588 mmHg 26%
    23:00 +14°C° 0 mm 3 mps 587 mmHg 28%

    29 April, Monday

    Time Temperature Precipitation Wind Pressure Humidity
    00:00 +15°C° 0 mm 2 mps 587 mmHg 30%
    01:00 +14°C° 0 mm 2 mps 586 mmHg 31%
    02:00 +13°C° 0 mm 1 mps 586 mmHg 33%
    03:00 +13°C° 0 mm 1 mps 586 mmHg 34%
    04:00 +12°C° 0 mm 1 mps 585 mmHg 35%
    05:00 +12°C° 0 mm 1 mps 585 mmHg 36%
    06:00 +12°C° 0 mm 1 mps 585 mmHg 33%
    07:00 +13°C° 0 mm 1 mps 586 mmHg 31%
    08:00 +14°C° 0 mm 2 mps 587 mmHg 29%
    09:00 +15°C° 0 mm 2 mps 587 mmHg 26%
    10:00 +16°C° 0 mm 2 mps 587 mmHg 23%
    11:00 +18°C° 0 mm 2 mps 588 mmHg 20%
    12:00 +19°C° 0 mm 3 mps 588 mmHg 19%
    13:00 +19°C° 0 mm 4 mps 588 mmHg 18%
    14:00 +20°C° 0 mm 5 mps 588 mmHg 17%
    15:00 +20°C° 0 mm 6 mps 587 mmHg 18%
    16:00 +20°C° 0 mm 7 mps 587 mmHg 19%
    17:00 +20°C° 0 mm 7 mps 587 mmHg 21%
    18:00 +19°C° 0 mm 6 mps 587 mmHg 23%
    19:00 +17°C° 0 mm 5 mps 586 mmHg 26%
    20:00 +17°C° 0 mm 4 mps 586 mmHg 29%
    21:00 +17°C° 0 mm 3 mps 586 mmHg 31%
    22:00 +16°C° 0 mm 2 mps 586 mmHg 34%
    23:00 +15°C° 0 mm 1 mps 586 mmHg 36%

    30 April, Tuesday

    Time Temperature Precipitation Wind Pressure Humidity
    00:00 +15°C° 0.4 mm 1 mps 585 mmHg 41%
    01:00 +14°C° 0.4 mm 1 mps 585 mmHg 45%
    02:00 +13°C° 0.4 mm 1 mps 584 mmHg 50%
    03:00 +13°C° 0.1 mm 2 mps 584 mmHg 54%
    04:00 +12°C° 0.1 mm 2 mps 584 mmHg 57%
    05:00 +12°C° 0.1 mm 2 mps 584 mmHg 61%
    06:00 +12°C° 0 mm 2 mps 584 mmHg 59%
    07:00 +13°C° 0 mm 2 mps 585 mmHg 57%
    08:00 +13°C° 0 mm 2 mps 585 mmHg 56%
    09:00 +14°C° 0 mm 2 mps 586 mmHg 49%
    10:00 +16°C° 0 mm 2 mps 586 mmHg 43%
    11:00 +18°C° 0 mm 1 mps 587 mmHg 37%
    12:00 +18°C° 0 mm 2 mps 587 mmHg 33%
    13:00 +19°C° 0 mm 3 mps 587 mmHg 29%
    14:00 +20°C° 0 mm 4 mps 587 mmHg 25%
    15:00 +21°C° 0 mm 4 mps 586 mmHg 24%
    16:00 +21°C° 0 mm 4 mps 586 mmHg 23%
    17:00 +21°C° 0 mm 4 mps 586 mmHg 22%
    18:00 +20°C° 0.1 mm 4 mps 586 mmHg 25%
    19:00 +19°C° 0.1 mm 3 mps 586 mmHg 27%
    20:00 +19°C° 0.1 mm 3 mps 586 mmHg 30%
    21:00 +18°C° 0 mm 3 mps 586 mmHg 35%
    22:00 +17°C° 0 mm 4 mps 586 mmHg 40%
    23:00 +14°C° 0 mm 4 mps 586 mmHg 46%

    1 May, Wednesday

    Time Temperature Precipitation Wind Pressure Humidity
    00:00 +14°C° 0.1 mm 4 mps 585 mmHg 49%
    01:00 +13°C° 0.1 mm 4 mps 585 mmHg 52%
    02:00 +12°C° 0.1 mm 4 mps 584 mmHg 55%
    03:00 +12°C° 0 mm 3 mps 584 mmHg 54%
    04:00 +11°C° 0 mm 3 mps 584 mmHg 54%
    05:00 +12°C° 0 mm 2 mps 584 mmHg 53%
    06:00 +13°C° 0 mm 2 mps 584 mmHg 49%
    07:00 +13°C° 0 mm 2 mps 585 mmHg 45%
    08:00 +14°C° 0 mm 2 mps 585 mmHg 41%
    09:00 +15°C° 0 mm 2 mps 586 mmHg 36%
    10:00 +18°C° 0 mm 1 mps 586 mmHg 30%
    11:00 +19°C° 0 mm 1 mps 586 mmHg 25%
    12:00 +20°C° 0 mm 1 mps 586 mmHg 22%
    13:00 +20°C° 0 mm 2 mps 586 mmHg 20%
    14:00 +21°C° 0 mm 2 mps 586 mmHg 17%
    15:00 +21°C° 0 mm 3 mps 586 mmHg 17%
    16:00 +21°C° 0 mm 3 mps 586 mmHg 17%
    17:00 +21°C° 0 mm 4 mps 586 mmHg 17%
    18:00 +21°C° 0 mm 4 mps 586 mmHg 20%
    19:00 +20°C° 0 mm 4 mps 586 mmHg 22%
    20:00 +20°C° 0 mm 4 mps 586 mmHg 25%
    21:00 +19°C° 0 mm 3 mps 586 mmHg 27%
    22:00 +18°C° 0 mm 3 mps 586 mmHg 29%
    23:00 +17°C° 0 mm 3 mps 586 mmHg 31%
    Show more